[TLELIST] Archives

 

[list_settings.list_name] Current TLEs

May 25th 2014 PST

HST 1 20580U 90037B 14144.60033994 .00001376 00000-0 81754-4 0 203 2 20580 028.4686 192.1778 0003304 035.3958 098.6144 15.05394322121166 ISS (ZARYA) 1 25544U 98067A 14145.35526819 .00012433 00000-0 22123-3 0 3556 2 25544 051.6485 212.7699 0003569 039.7992 052.5065 15.50540592887786 CXO 1 25867U 99040B 14146.73611783 -.00000665 00000-0 00000+0 0 226 2 25867 076.8203 321.6609 8138524 274.4755 359.8194 00.37801569 11839 ____________________________________________________________________ These 2-Line ...Continue Reading

[list_settings.list_name] Current TLEs

May 24th 2014 PST

HST 1 20580U 90037B 14143.54121986 .00001443 00000-0 86343-4 0 196 2 20580 028.4686 199.1402 0003329 024.5472 118.3177 15.05391478121003 ISS (ZARYA) 1 25544U 98067A 14144.45661628 .00013141 00000-0 23353-3 0 3489 2 25544 051.6479 217.2260 0003461 036.2548 076.5548 15.50520368887649 CXO 1 25867U 99040B 14144.09204613 -.00000669 00000-0 00000+0 0 216 2 25867 076.8249 321.7464 8142934 274.5269 359.8470 00.37801743 11820 ____________________________________________________________________ These 2-Line ...Continue Reading

[list_settings.list_name] Current TLEs

May 23rd 2014 PST

HST 1 20580U 90037B 14142.47770832 .00001840 00000-0 11336-3 0 186 2 20580 028.4692 206.1367 0003235 015.9477 111.9420 15.05386275120844 ISS (ZARYA) 1 25544U 98067A 14143.42038029 .00014283 00000-0 25333-3 0 3431 2 25544 051.6489 222.3649 0003188 034.0919 050.8234 15.50496865887485 CXO 1 25867U 99040B 14144.09204613 -.00000669 00000-0 00000+0 0 216 2 25867 076.8249 321.7464 8142934 274.5269 359.8470 00.37801743 11820 ____________________________________________________________________ These 2-Line ...Continue Reading

[list_settings.list_name] Current TLEs

May 22nd 2014 PST

HST 1 20580U 90037B 14140.68889611 .00002001 00000-0 12434-3 0 172 2 20580 028.4693 217.8946 0003155 357.6216 136.8668 15.05381162120575 ISS (ZARYA) 1 25544U 98067A 14142.45799194 .00015917 00000-0 28157-3 0 3386 2 25544 051.6493 227.1361 0003181 031.2211 078.3635 15.50475246887335 CXO 1 25867U 99040B 14144.09204613 -.00000669 00000-0 00000+0 0 216 2 25867 076.8249 321.7464 8142934 274.5269 359.8470 00.37801743 11820 ____________________________________________________________________ These 2-Line ...Continue Reading

[list_settings.list_name] Current TLEs

May 21st 2014 PST

HST 1 20580U 90037B 14140.68889611 .00002001 00000-0 12434-3 0 172 2 20580 028.4693 217.8946 0003155 357.6216 136.8668 15.05381162120575 ISS (ZARYA) 1 25544U 98067A 14141.42393318 .00018281 00000-0 32238-3 0 3315 2 25544 051.6493 232.2604 0003150 027.1207 066.9264 15.50451313887179 CXO 1 25867U 99040B 14144.09204613 -.00000669 00000-0 00000+0 0 216 2 25867 076.8249 321.7464 8142934 274.5269 359.8470 00.37801743 11820 ____________________________________________________________________ These 2-Line ...Continue Reading

[list_settings.list_name] Current TLEs

May 20th 2014 PST

HST 1 20580U 90037B 14139.48927723 .00002248 00000-0 14117-3 0 167 2 20580 028.4693 225.7799 0003082 345.5769 114.8990 15.05376844120381 ISS (ZARYA) 1 25544U 98067A 14140.45780818 .00019082 00000-0 33650-3 0 3254 2 25544 051.6493 237.0508 0003199 024.5402 073.4696 15.50418695887028 CXO 1 25867U 99040B 14141.44657872 -.00000474 00000-0 00000+0 0 204 2 25867 076.8237 321.8401 8150235 274.5654 359.7524 00.37802778 11817 ____________________________________________________________________ These 2-Line ...Continue Reading

[list_settings.list_name] Current TLEs

May 19th 2014 PST

HST 1 20580U 90037B 14137.70903584 .00002953 00000-0 18925-3 0 152 2 20580 028.4694 237.4818 0002984 326.2417 187.4446 15.05368438120124 ISS (ZARYA) 1 25544U 98067A 14139.42455007 .00019900 00000-0 35107-3 0 3188 2 25544 051.6458 242.1724 0003795 012.7712 074.3637 15.50376117886869 CXO 1 25867U 99040B 14141.44657872 -.00000474 00000-0 00000+0 0 204 2 25867 076.8237 321.8401 8150235 274.5654 359.7524 00.37802778 11817 ____________________________________________________________________ These 2-Line ...Continue Reading

[list_settings.list_name] Current TLEs

May 18th 2014 PST

HST 1 20580U 90037B 14137.70903584 .00002953 00000-0 18925-3 0 152 2 20580 028.4694 237.4818 0002984 326.2417 187.4446 15.05368438120124 ISS (ZARYA) 1 25544U 98067A 14138.39753425 .00019360 00000-0 34224-3 0 3132 2 25544 051.6488 247.2619 0003212 016.1173 095.1610 15.50338959886701 CXO 1 25867U 99040B 14141.44657872 -.00000474 00000-0 00000+0 0 204 2 25867 076.8237 321.8401 8150235 274.5654 359.7524 00.37802778 11817 ____________________________________________________________________ These 2-Line ...Continue Reading

[list_settings.list_name] Current TLEs

May 17th 2014 PST

HST 1 20580U 90037B 14136.50661572 .00003079 00000-0 19782-3 0 148 2 20580 028.4696 245.3849 0002859 312.1125 152.4108 15.05361858119932 ISS (ZARYA) 1 25544U 98067A 14137.28850696 .00021519 00000-0 37995-3 0 3088 2 25544 051.6496 252.7562 0002860 013.1139 024.4541 15.50300921886532 CXO 1 25867U 99040B 14138.79995925 -.00000300 00000-0 00000+0 0 198 2 25867 076.8163 321.9608 8156803 274.5774 359.5626 00.37801938 11802 ____________________________________________________________________ These 2-Line ...Continue Reading

[list_settings.list_name] Current TLEs

May 16th 2014 PST

HST 1 20580U 90037B 14134.78738037 .00003404 00000-0 22004-3 0 139 2 20580 028.4699 256.6852 0002794 292.4598 196.6338 15.05352648119680 ISS (ZARYA) 1 25544U 98067A 14136.45120933 .00022999 00000-0 40596-3 0 3028 2 25544 051.6476 256.9057 0002415 010.5265 030.9868 15.50266517886404 CXO 1 25867U 99040B 14138.79995925 -.00000300 00000-0 00000+0 0 198 2 25867 076.8163 321.9608 8156803 274.5774 359.5626 00.37801938 11802 ____________________________________________________________________ These 2-Line ...Continue Reading
  • This mailing list is a public mailing list - anyone may join or leave, at any time.
  • This mailing list is announce-only.

International Space Station (ISS) / Hubble Space Telescope (HST) / Chandra X-Ray Observatory Orbital Data via EMAIL

Privacy Policy:

Private list